Skip Page Navigation
NASA JPL Caltech
NASA Logo - Jet Propulsion Laboratory + View the NASA Portal
+ Near-Earth Object (NEO) Program
Search JPL
JPL Home Earth Solar System Stars & Galaxies Technology
JPL Solar System Dynamics
BODIES ORBITS EPHEMERIDES TOOLS PHYSICAL DATA DISCOVERY FAQ SITE MAP
JPL Small-Body Database Browser
Search: [ help ]  
315252 (2007 TW7)
Classification: Main-belt Asteroid          SPK-ID: 2315252
Ephemeris | Orbit Diagram | Orbital Elements | Physical Parameters | Discovery Circumstances ]

[ hide orbit diagram ]
Orbit Diagram
Note: Make sure you have Java enabled on your browser to see the applet. This applet is provided as a 3D orbit visualization tool. The applet was implemented using 2-body methods, and hence should not be used for determining accurate long-term trajectories (over several years or decades) or planetary encounter circumstances. For accurate long-term ephemerides, please instead use our Horizons system.
Orbit Viewer

Additional Notes: the orbits shown in the applet are color coded. The planets are white lines, and the asteroid/comet is a blue line. The bright white line indicates the portion of the orbit that is above the ecliptic plane, and the darker portion is below the ecliptic plane. Likewise for the asteroid/comet orbit, the light blue indicates the portion above the ecliptic plane, and the dark blue the portion below the ecliptic plane.

Orbit Viewer applet originally written and kindly provided by Osamu Ajiki (AstroArts), and further modified by Ron Baalke (JPL).


Orbital Elements at Epoch 2456400.5 (2013-Apr-18.0) TDB
Reference: MPO224564 (heliocentric ecliptic J2000)
 Element Value Uncertainty (1-sigma)   Units 
e 0.1738536 n/a  
a 2.2825850 n/a AU
q 1.8857494 n/a AU
i 3.01653 n/a deg
node 126.18375 n/a deg
peri 267.18351 n/a deg
M 203.43535 n/a deg
tp 2456948.3101488
(2014-Oct-17.81014880)
n/a JED
period 1259.6180145
3.45
n/a
n/a
d
yr
n 0.28580093 n/a deg/d
Q 2.6794206 n/a AU
  Orbit Determination Parameters
   # obs. used (total)      79  
   first obs. used      2000-??-??  
   last obs. used      2012-02-11  
   # oppositions      5  
   planetary ephem.      DE403  
   condition code      1  
   fit RMS      0.47  
   data source      MPC:mpu  
   producer      MPCLINUX  

Additional Information
 T_jup = 3.582 

Ephemeris | Orbit Diagram | Orbital Elements | Physical Parameters | Discovery Circumstances ]

Physical Parameter Table
Parameter Symbol Value Units Sigma Reference Notes
absolute magnitude H 18.1 mag n/a MPO224564  

315252 (2007 TW7)          Discovered 2007-Oct-07 by Molnar, L. A. at Calvin-Rehoboth (G98)
Reference: 20120207/Numbers.arcLast Updated: 2012-02-09
Ephemeris | Orbit Diagram | Orbital Elements | Physical Parameters | Discovery Circumstances ]
ABOUT SSD CREDITS/AWARDS PRIVACY/COPYRIGHT GLOSSARY LINKS
FirstGov 2013-May-23 02:39 UT
(server date/time)  
NASA Home Page
Site Manager:   Donald K. Yeomans
Webmaster  Alan B. Chamberlin